DLH958 EDDF-EGBB

Flight info

Callsign DLH958
Flight time 1h 18m
Altitude 38000
Route OBOKA2E/07C OBOKA Z29 TORNU DCT GALSO Q63 ERING L179 LAM L610 HEMEL
Aircraft CRJ9/M-SDFGIRWY/S

Departure

Time 2026-04-14 12:59
Airport Frankfurt Main Airport (EDDF)

Arrival

Time 2026-04-14 14:17
Airport Birmingham Airport (EGBB)
Time Latitude Longitude Altitude Speed Heading
2026-04-14 12:39 50.03696 8.54088 360 ft 0 kts 159°
2026-04-14 12:55 50.03690 8.54092 368 ft 2 kts 159°
2026-04-14 12:55 50.03670 8.54103 366 ft 4 kts 159°
2026-04-14 12:56 50.03636 8.54124 366 ft 6 kts 148°
2026-04-14 12:56 50.03612 8.54178 367 ft 7 kts 137°
2026-04-14 12:56 50.03564 8.54217 362 ft 9 kts 161°
2026-04-14 12:56 50.03530 8.54300 361 ft 11 kts 101°
2026-04-14 12:57 50.03491 8.54380 353 ft 3 kts 122°
2026-04-14 12:57 50.03489 8.54405 359 ft 3 kts 81°
2026-04-14 12:57 50.03496 8.54440 357 ft 0 kts 70°
2026-04-14 12:58 50.03534 8.54601 358 ft 47 kts 69°
2026-04-14 12:58 50.03725 8.55401 355 ft 110 kts 70°
2026-04-14 12:58 50.04050 8.56760 361 ft 157 kts 70°
2026-04-14 12:58 50.04463 8.58466 764 ft 172 kts 66°
2026-04-14 12:59 50.04891 8.60161 1618 ft 163 kts 66°
2026-04-14 12:59 50.05299 8.61860 2218 ft 175 kts 67°
2026-04-14 12:59 50.06067 8.63455 2385 ft 204 kts 27°
2026-04-14 12:59 50.07509 8.63850 2960 ft 214 kts 358°
2026-04-14 13:00 50.09046 8.63707 3653 ft 229 kts 355°
2026-04-14 13:00 50.10637 8.63497 4526 ft 230 kts 355°
2026-04-14 13:00 50.12243 8.63271 5353 ft 233 kts 355°
2026-04-14 13:00 50.13910 8.63081 5690 ft 257 kts 357°
2026-04-14 13:01 50.15764 8.62943 5593 ft 270 kts 358°
2026-04-14 13:01 50.17657 8.62825 5580 ft 273 kts 358°
2026-04-14 13:01 50.19514 8.62703 6035 ft 261 kts 358°
2026-04-14 13:01 50.21311 8.62582 6307 ft 258 kts 358°
2026-04-14 13:02 50.23101 8.62309 6462 ft 260 kts 344°
2026-04-14 13:02 50.24759 8.61143 6983 ft 260 kts 331°
2026-04-14 13:02 50.26060 8.59167 7922 ft 269 kts 299°
2026-04-14 13:02 50.26632 8.56398 8830 ft 274 kts 285°
2026-04-14 13:03 50.27073 8.53465 9739 ft 279 kts 281°
2026-04-14 13:03 50.27453 8.50478 10586 ft 284 kts 279°
2026-04-14 13:03 50.27804 8.47306 10967 ft 305 kts 278°
2026-04-14 13:03 50.28138 8.43936 11437 ft 322 kts 277°
2026-04-14 13:04 50.28453 8.40447 12002 ft 333 kts 277°
2026-04-14 13:04 50.28801 8.36779 12697 ft 343 kts 277°
2026-04-14 13:04 50.29179 8.33114 12986 ft 347 kts 278°
2026-04-14 13:04 50.29588 8.29363 13117 ft 350 kts 279°
2026-04-14 13:05 50.29989 8.25622 13162 ft 348 kts 279°
2026-04-14 13:05 50.30387 8.21904 13176 ft 346 kts 279°
2026-04-14 13:05 50.30782 8.18199 13181 ft 344 kts 278°
2026-04-14 13:05 50.31170 8.14507 13180 ft 343 kts 279°
2026-04-14 13:06 50.31557 8.10826 13182 ft 343 kts 279°
2026-04-14 13:06 50.31943 8.07145 13188 ft 342 kts 279°
2026-04-14 13:06 50.32326 8.03473 13194 ft 342 kts 278°
2026-04-14 13:06 50.32710 7.99804 13189 ft 341 kts 278°
2026-04-14 13:07 50.33091 7.96139 13194 ft 341 kts 278°
2026-04-14 13:07 50.33468 7.92477 13202 ft 341 kts 279°
2026-04-14 13:07 50.33846 7.88809 13197 ft 341 kts 279°
2026-04-14 13:07 50.34222 7.85154 13188 ft 340 kts 279°
2026-04-14 13:08 50.34582 7.81529 13187 ft 341 kts 280°
2026-04-14 13:08 50.34968 7.77839 13821 ft 341 kts 281°
2026-04-14 13:08 50.35348 7.74138 14653 ft 346 kts 281°
2026-04-14 13:08 50.35763 7.70399 15489 ft 348 kts 285°
2026-04-14 13:09 50.36820 7.67022 16259 ft 349 kts 310°
2026-04-14 13:09 50.38474 7.64175 16900 ft 356 kts 314°
2026-04-14 13:09 50.40237 7.61418 17642 ft 361 kts 317°
2026-04-14 13:09 50.42113 7.58824 18329 ft 366 kts 319°
2026-04-14 13:10 50.44055 7.56238 19044 ft 367 kts 319°
2026-04-14 13:10 50.46022 7.53606 19646 ft 372 kts 319°
2026-04-14 13:10 50.47984 7.50925 20224 ft 376 kts 318°
2026-04-14 13:10 50.49956 7.48187 20823 ft 379 kts 318°
2026-04-14 13:11 50.51933 7.45429 21434 ft 382 kts 318°
2026-04-14 13:11 50.53927 7.42646 22050 ft 384 kts 318°
2026-04-14 13:11 50.55928 7.39843 22633 ft 387 kts 318°
2026-04-14 13:11 50.57950 7.37016 23186 ft 390 kts 318°
2026-04-14 13:12 50.59983 7.34168 23733 ft 393 kts 317°
2026-04-14 13:12 50.62025 7.31291 24194 ft 395 kts 318°
2026-04-14 13:12 50.64081 7.28399 24643 ft 397 kts 318°
2026-04-14 13:12 50.66148 7.25498 25093 ft 399 kts 318°
2026-04-14 13:13 50.68222 7.22578 25516 ft 401 kts 318°
2026-04-14 13:13 50.70308 7.19630 25933 ft 403 kts 318°
2026-04-14 13:13 50.72375 7.16711 26332 ft 405 kts 318°
2026-04-14 13:13 50.74481 7.13739 26722 ft 407 kts 318°
2026-04-14 13:14 50.76596 7.10750 27108 ft 409 kts 318°
2026-04-14 13:14 50.78721 7.07739 27443 ft 411 kts 318°
2026-04-14 13:14 50.80852 7.04724 27785 ft 413 kts 318°
2026-04-14 13:14 50.82986 7.01681 28219 ft 412 kts 318°
2026-04-14 13:15 50.85115 6.98608 28548 ft 413 kts 315°
2026-04-14 13:15 50.86892 6.95014 28844 ft 417 kts 305°
2026-04-14 13:15 50.88438 6.91113 29136 ft 419 kts 301°
2026-04-14 13:15 50.89796 6.87006 29437 ft 422 kts 298°
2026-04-14 13:16 50.91075 6.82802 29721 ft 424 kts 297°
2026-04-14 13:16 50.92333 6.78624 29989 ft 425 kts 298°
2026-04-14 13:16 50.93646 6.74404 30255 ft 427 kts 299°
2026-04-14 13:16 50.94995 6.70198 30478 ft 428 kts 299°
2026-04-14 13:17 50.96342 6.65984 30700 ft 429 kts 299°
2026-04-14 13:17 50.97690 6.61749 30914 ft 431 kts 299°
2026-04-14 13:17 50.99032 6.57514 31240 ft 428 kts 299°
2026-04-14 13:17 51.00372 6.53289 31447 ft 429 kts 299°
2026-04-14 13:18 51.01718 6.49041 31645 ft 430 kts 299°
2026-04-14 13:18 51.03065 6.44782 31836 ft 431 kts 299°
2026-04-14 13:18 51.04405 6.40535 32140 ft 429 kts 299°
2026-04-14 13:18 51.05739 6.36302 32413 ft 428 kts 299°
2026-04-14 13:19 51.07069 6.32066 32694 ft 427 kts 299°
2026-04-14 13:19 51.08394 6.27842 32960 ft 426 kts 299°
2026-04-14 13:19 51.09718 6.23618 33236 ft 425 kts 299°
2026-04-14 13:19 51.11037 6.19407 33492 ft 425 kts 298°
2026-04-14 13:20 51.12332 6.15258 33803 ft 421 kts 299°
2026-04-14 13:20 51.13512 6.10988 34201 ft 420 kts 294°
2026-04-14 13:20 51.14487 6.06608 34399 ft 420 kts 292°
2026-04-14 13:20 51.15368 6.02146 34546 ft 422 kts 289°
2026-04-14 13:21 51.16108 5.97600 34695 ft 424 kts 287°
2026-04-14 13:21 51.16813 5.93030 34842 ft 424 kts 287°
2026-04-14 13:21 51.17519 5.88455 34993 ft 425 kts 287°
2026-04-14 13:21 51.18241 5.83868 35141 ft 425 kts 289°
2026-04-14 13:22 51.19102 5.79362 35288 ft 425 kts 291°
2026-04-14 13:22 51.20078 5.74980 35475 ft 424 kts 293°
2026-04-14 13:22 51.21108 5.70575 35630 ft 424 kts 293°
2026-04-14 13:22 51.22123 5.66176 35874 ft 422 kts 292°
2026-04-14 13:23 51.23103 5.61746 36023 ft 423 kts 292°
2026-04-14 13:23 51.24076 5.57299 36179 ft 424 kts 292°
2026-04-14 13:23 51.25047 5.52852 36335 ft 424 kts 291°
2026-04-14 13:23 51.26017 5.48395 36481 ft 424 kts 291°
2026-04-14 13:24 51.26984 5.43921 36616 ft 425 kts 291°
2026-04-14 13:24 51.28904 5.35028 36901 ft 427 kts 291°
2026-04-14 13:24 51.29868 5.30550 37055 ft 427 kts 291°
2026-04-14 13:25 51.30832 5.26048 37209 ft 427 kts 291°
2026-04-14 13:25 51.31794 5.21555 37476 ft 424 kts 291°
2026-04-14 13:26 51.34657 5.08128 37917 ft 426 kts 291°
2026-04-14 13:26 51.35610 5.03636 38022 ft 427 kts 291°
2026-04-14 13:26 51.37509 4.94661 38127 ft 431 kts 290°
2026-04-14 13:27 51.39437 4.85508 38193 ft 433 kts 290°
2026-04-14 13:27 51.41355 4.76354 38191 ft 433 kts 290°
2026-04-14 13:28 51.43254 4.67232 38185 ft 431 kts 291°
2026-04-14 13:28 51.45143 4.58144 38180 ft 428 kts 291°
2026-04-14 13:29 51.46999 4.49165 38178 ft 426 kts 290°
2026-04-14 13:29 51.48861 4.40128 38182 ft 425 kts 290°
2026-04-14 13:30 51.50707 4.31107 38186 ft 426 kts 290°
2026-04-14 13:30 51.52560 4.22028 38184 ft 428 kts 290°
2026-04-14 13:31 51.54413 4.12907 38185 ft 430 kts 290°
2026-04-14 13:31 51.56249 4.03809 38189 ft 431 kts 290°
2026-04-14 13:32 51.58092 3.94653 38188 ft 430 kts 290°
2026-04-14 13:32 51.59919 3.85514 38167 ft 428 kts 290°
2026-04-14 13:33 51.61732 3.76413 38192 ft 426 kts 290°
2026-04-14 13:33 51.63533 3.67333 38194 ft 425 kts 290°
2026-04-14 13:34 51.66209 3.53751 38196 ft 423 kts 290°
2026-04-14 13:35 51.67683 3.46249 38200 ft 423 kts 290°
2026-04-14 13:35 51.69727 3.35754 38202 ft 421 kts 290°
2026-04-14 13:36 51.71476 3.26742 38206 ft 420 kts 289°
2026-04-14 13:36 51.72127 3.18931 38213 ft 426 kts 275°
2026-04-14 13:37 51.72256 3.09377 38200 ft 427 kts 275°
2026-04-14 13:37 51.71948 2.99784 38202 ft 432 kts 266°
2026-04-14 13:38 51.70948 2.90206 38194 ft 433 kts 265°
2026-04-14 13:38 51.70034 2.80626 38202 ft 430 kts 268°
2026-04-14 13:39 51.69216 2.71071 38197 ft 430 kts 267°
2026-04-14 13:39 51.68361 2.61618 38190 ft 427 kts 267°
2026-04-14 13:40 51.67507 2.52151 38198 ft 425 kts 267°
2026-04-14 13:40 51.66654 2.42743 38188 ft 423 kts 267°
2026-04-14 13:41 51.65789 2.33403 38189 ft 419 kts 267°
2026-04-14 13:41 51.64935 2.24210 38183 ft 416 kts 268°
2026-04-14 13:42 51.64074 2.15013 38182 ft 414 kts 267°
2026-04-14 13:42 51.63218 2.05869 38177 ft 411 kts 268°
2026-04-14 13:43 51.62389 1.96766 38176 ft 409 kts 268°
2026-04-14 13:43 51.61574 1.87717 38165 ft 407 kts 268°
2026-04-14 13:44 51.60732 1.78773 38171 ft 407 kts 268°
2026-04-14 13:44 51.59871 1.69745 38170 ft 409 kts 268°
2026-04-14 13:45 51.59291 1.60692 38171 ft 404 kts 274°
2026-04-14 13:45 51.59376 1.51679 38165 ft 402 kts 279°
2026-04-14 13:46 51.59839 1.42742 38149 ft 400 kts 280°
2026-04-14 13:46 51.60264 1.33839 38143 ft 399 kts 279°
2026-04-14 13:47 51.60639 1.24940 38148 ft 398 kts 279°
2026-04-14 13:47 51.60997 1.16056 38145 ft 397 kts 279°
2026-04-14 13:48 51.61348 1.07261 38141 ft 396 kts 279°
2026-04-14 13:48 51.61691 0.98425 38131 ft 396 kts 279°
2026-04-14 13:49 51.62034 0.89596 38117 ft 394 kts 279°
2026-04-14 13:49 51.62195 0.85181 37998 ft 397 kts 279°
2026-04-14 13:49 51.62365 0.80721 37712 ft 400 kts 279°
2026-04-14 13:49 51.62531 0.76228 37445 ft 402 kts 279°
2026-04-14 13:50 51.62699 0.71729 37186 ft 403 kts 279°
2026-04-14 13:50 51.62860 0.67225 36929 ft 404 kts 279°
2026-04-14 13:50 51.63025 0.62746 36632 ft 406 kts 279°
2026-04-14 13:50 51.63182 0.58192 36333 ft 408 kts 279°
2026-04-14 13:51 51.63344 0.53629 36022 ft 408 kts 279°
2026-04-14 13:51 51.63503 0.49067 35730 ft 407 kts 279°
2026-04-14 13:51 51.63663 0.44513 35420 ft 407 kts 278°
2026-04-14 13:51 51.63815 0.39957 35120 ft 407 kts 278°
2026-04-14 13:52 51.63969 0.35403 34781 ft 408 kts 278°
2026-04-14 13:52 51.64122 0.30843 34444 ft 409 kts 278°
2026-04-14 13:52 51.64273 0.26252 34010 ft 412 kts 278°
2026-04-14 13:52 51.64452 0.21636 33526 ft 412 kts 282°
2026-04-14 13:53 51.65049 0.17159 33056 ft 409 kts 289°
2026-04-14 13:53 51.65828 0.12743 32596 ft 411 kts 290°
2026-04-14 13:53 51.66648 0.08320 32137 ft 412 kts 291°
2026-04-14 13:53 51.67615 0.04049 31689 ft 409 kts 295°
2026-04-14 13:54 51.68791 -0.00114 31252 ft 406 kts 298°
2026-04-14 13:54 51.70027 -0.04202 30749 ft 405 kts 298°
2026-04-14 13:54 51.71243 -0.08295 30314 ft 405 kts 297°
2026-04-14 13:54 51.72406 -0.12427 29832 ft 404 kts 296°
2026-04-14 13:55 51.73562 -0.16570 29338 ft 404 kts 296°
2026-04-14 13:55 51.74716 -0.20709 28848 ft 404 kts 296°
2026-04-14 13:55 51.75870 -0.24849 28364 ft 404 kts 296°
2026-04-14 13:55 51.77024 -0.29003 27886 ft 405 kts 296°
2026-04-14 13:56 51.78176 -0.33159 27413 ft 405 kts 296°
2026-04-14 13:56 51.79442 -0.37163 26976 ft 404 kts 305°
2026-04-14 13:56 51.81350 -0.40490 26548 ft 405 kts 316°
2026-04-14 13:56 51.83494 -0.43478 26112 ft 406 kts 319°
2026-04-14 13:57 51.85700 -0.46346 25679 ft 407 kts 320°
2026-04-14 13:57 51.87941 -0.49067 25240 ft 396 kts 322°
2026-04-14 13:57 51.90216 -0.51475 24808 ft 387 kts 326°
2026-04-14 13:57 51.92514 -0.53669 24374 ft 378 kts 327°
2026-04-14 13:58 51.94773 -0.55785 23949 ft 373 kts 327°
2026-04-14 13:58 51.97046 -0.57910 23502 ft 380 kts 326°
2026-04-14 13:58 51.99312 -0.60107 23017 ft 386 kts 326°
2026-04-14 13:58 52.01622 -0.62371 22533 ft 390 kts 326°
2026-04-14 13:59 52.03958 -0.64664 22052 ft 393 kts 326°
2026-04-14 13:59 52.06302 -0.66967 21604 ft 395 kts 326°
2026-04-14 13:59 52.08668 -0.69295 21137 ft 398 kts 326°
2026-04-14 13:59 52.11041 -0.71628 20692 ft 400 kts 326°
2026-04-14 14:00 52.13426 -0.73976 20339 ft 400 kts 326°
2026-04-14 14:00 52.15792 -0.76312 20199 ft 395 kts 326°
2026-04-14 14:00 52.18137 -0.78621 20125 ft 389 kts 326°
2026-04-14 14:00 52.20438 -0.80893 20086 ft 383 kts 326°
2026-04-14 14:01 52.22539 -0.83489 19885 ft 378 kts 311°
2026-04-14 14:01 52.23570 -0.85445 19727 ft 375 kts 308°
2026-04-14 14:01 52.24689 -0.87781 19635 ft 368 kts 303°
2026-04-14 14:01 52.25871 -0.91450 19376 ft 363 kts 290°
2026-04-14 14:02 52.26679 -0.95330 19135 ft 360 kts 285°
2026-04-14 14:02 52.27277 -0.99318 18701 ft 364 kts 281°
2026-04-14 14:02 52.27778 -1.03380 18219 ft 364 kts 279°
2026-04-14 14:02 52.28261 -1.07426 17712 ft 362 kts 279°
2026-04-14 14:03 52.28772 -1.11456 17190 ft 361 kts 280°
2026-04-14 14:03 52.29284 -1.15470 16673 ft 360 kts 280°
2026-04-14 14:03 52.29796 -1.19463 16158 ft 359 kts 279°
2026-04-14 14:03 52.30307 -1.23446 15675 ft 358 kts 279°
2026-04-14 14:04 52.30816 -1.27419 15182 ft 357 kts 279°
2026-04-14 14:04 52.31321 -1.31385 14697 ft 356 kts 279°
2026-04-14 14:04 52.31825 -1.35345 14224 ft 355 kts 279°
2026-04-14 14:04 52.32322 -1.39284 13733 ft 353 kts 279°
2026-04-14 14:05 52.32806 -1.43220 13215 ft 352 kts 278°
2026-04-14 14:05 52.33285 -1.47082 12720 ft 350 kts 278°
2026-04-14 14:05 52.33770 -1.50965 12226 ft 346 kts 278°
2026-04-14 14:05 52.34238 -1.54778 11704 ft 337 kts 278°
2026-04-14 14:06 52.34694 -1.58484 11210 ft 328 kts 278°
2026-04-14 14:06 52.35147 -1.62124 10716 ft 326 kts 277°
2026-04-14 14:06 52.35608 -1.65715 10236 ft 319 kts 278°
2026-04-14 14:06 52.36127 -1.69215 9717 ft 314 kts 280°
2026-04-14 14:07 52.36748 -1.72610 9203 ft 310 kts 284°
2026-04-14 14:07 52.37435 -1.75926 8754 ft 303 kts 284°
2026-04-14 14:07 52.38120 -1.79126 8440 ft 293 kts 285°
2026-04-14 14:07 52.38797 -1.82217 8132 ft 284 kts 285°
2026-04-14 14:08 52.39729 -1.85038 7806 ft 286 kts 308°
2026-04-14 14:08 52.41300 -1.87090 7565 ft 293 kts 322°
2026-04-14 14:08 52.43019 -1.88913 7327 ft 292 kts 324°
2026-04-14 14:08 52.44704 -1.90608 7098 ft 283 kts 324°
2026-04-14 14:09 52.46376 -1.92240 6848 ft 276 kts 325°
2026-04-14 14:09 52.48007 -1.93806 6594 ft 269 kts 325°
2026-04-14 14:09 52.49612 -1.95329 6347 ft 263 kts 325°
2026-04-14 14:09 52.51184 -1.96815 6091 ft 258 kts 326°
2026-04-14 14:10 52.52728 -1.98274 5824 ft 253 kts 325°
2026-04-14 14:10 52.54248 -1.99702 5595 ft 247 kts 325°
2026-04-14 14:10 52.55721 -2.01067 5337 ft 239 kts 326°
2026-04-14 14:10 52.57174 -2.02252 5062 ft 229 kts 339°
2026-04-14 14:11 52.58726 -2.02236 4883 ft 220 kts 16°
2026-04-14 14:11 52.59947 -2.00938 4760 ft 202 kts 53°
2026-04-14 14:11 52.60671 -1.99080 4677 ft 185 kts 66°
2026-04-14 14:11 52.61268 -1.97231 4565 ft 191 kts 69°
2026-04-14 14:12 52.61696 -1.95211 4439 ft 182 kts 96°
2026-04-14 14:12 52.61381 -1.93256 4083 ft 174 kts 135°
2026-04-14 14:12 52.60507 -1.91846 3711 ft 178 kts 148°
2026-04-14 14:12 52.59595 -1.90698 3474 ft 156 kts 152°
2026-04-14 14:13 52.58725 -1.89698 3299 ft 152 kts 154°
2026-04-14 14:13 52.57844 -1.88731 3119 ft 152 kts 155°
2026-04-14 14:13 52.56963 -1.87757 2918 ft 153 kts 154°
2026-04-14 14:13 52.56075 -1.86771 2690 ft 154 kts 152°
2026-04-14 14:14 52.55199 -1.85779 2462 ft 149 kts 151°
2026-04-14 14:14 52.54369 -1.84839 2278 ft 141 kts 150°
2026-04-14 14:14 52.53579 -1.83944 2121 ft 134 kts 150°
2026-04-14 14:14 52.52821 -1.83074 1929 ft 132 kts 150°
2026-04-14 14:15 52.52069 -1.82231 1759 ft 128 kts 150°
2026-04-14 14:15 52.51345 -1.81428 1556 ft 123 kts 150°
2026-04-14 14:15 52.50647 -1.80658 1373 ft 119 kts 150°
2026-04-14 14:15 52.49989 -1.79916 1191 ft 113 kts 150°
2026-04-14 14:16 52.49345 -1.79201 1079 ft 111 kts 149°
2026-04-14 14:16 52.48676 -1.78479 961 ft 120 kts 147°
2026-04-14 14:16 52.47992 -1.77696 806 ft 119 kts 146°
2026-04-14 14:17 52.46622 -1.76180 424 ft 119 kts 147°
2026-04-14 14:17 52.45944 -1.75419 321 ft 114 kts 146°
2026-04-14 14:17 52.45405 -1.74823 323 ft 75 kts 146°
2026-04-14 14:17 52.45088 -1.74471 329 ft 28 kts 146°
2026-04-14 14:18 52.44975 -1.74346 325 ft 14 kts 146°
2026-04-14 14:18 52.44951 -1.74213 326 ft 13 kts 75°
2026-04-14 14:18 52.44978 -1.74044 323 ft 19 kts 76°
2026-04-14 14:18 52.45027 -1.73855 322 ft 16 kts 56°
2026-04-14 14:19 52.45070 -1.73768 322 ft 4 kts 25°
2026-04-14 14:19 52.45100 -1.73775 322 ft 6 kts 335°
2026-04-14 14:19 52.45141 -1.73821 321 ft 8 kts 326°
2026-04-14 14:19 52.45195 -1.73880 322 ft 10 kts 326°
2026-04-14 14:20 52.45260 -1.73952 322 ft 12 kts 327°
2026-04-14 14:20 52.45331 -1.73935 321 ft 12 kts 53°
2026-04-14 14:20 52.45380 -1.73817 322 ft 13 kts 56°
2026-04-14 14:20 52.45436 -1.73681 322 ft 15 kts 55°
2026-04-14 14:21 52.45474 -1.73589 322 ft 12 kts 56°
2026-04-14 14:21 52.45522 -1.73472 322 ft 12 kts 56°
2026-04-14 14:21 52.45533 -1.73435 320 ft 0 kts 100°
2026-04-14 14:21 52.45519 -1.73410 322 ft 6 kts 142°
2026-04-14 14:22 52.45484 -1.73367 322 ft 5 kts 145°
2026-04-14 14:22 52.45478 -1.73360 322 ft 1 kts 145°
2026-04-14 14:22 52.45477 -1.73359 322 ft 0 kts 145°